Weather in Durgen

Russia / Tyva Republic     51°08′48″N   94°30′08″E
temp.,
°C
wind,
m/s
gust,
m/s
humid.,
%
clouds,
%
prec.,
mm/h
press.,
hPa
HPBL,
m
5 march, fri
fri501:00−18e11790 0.0 103320
04:00−19ene11820 0.0 103320
07:00−20ne118714 0.0 103220
10:00−16ne218731 0.0 103064
13:00−13nne229059 0.0 1028149
16:00−13nnw349698 0.0 1025114
19:00−15wnw239399 0.0 102821
22:00−16wsw119199 0.0 103120
6 march, sat
sat601:00−18sw119887 0.0 103520
04:00−18e11870 0.0 103520
07:00−20nne11901 0.0 103620
10:00−16n229776 0.0 103470
13:00−12n229488 0.0 1030161
16:00−11n2297100 0.0 102797
19:00−15nnw119797 0.0 102821
22:00−16ne018992 0.0 102821
7 march, sun
sun701:00−17n118889 0.0 102820
04:00−18n119287 0.0 102720
07:00−19nnw119890 0.0 102820
10:00−16n2198100 0.0 102766
13:00−12nnw2195100 0.0 1026139
16:00−11n1195100 0.0 1025108
19:00−13nw1195100 0.0 102721
22:00−14nw1194100 0.0 102920
8 march, mon
mon801:00−16sse119272 0.0 103120
04:00−17ene118945 0.0 103120
07:00−18w009448 0.0 103220
10:00−15nnw11964 0.0 103033
13:00−11n219335 0.0 1027134
16:00−10n119659 0.0 102592
19:00−14nw119857 0.0 102621
22:00−16nnw019639 0.0 102721
9 march, tue
tue901:00−16ne009441 0.0 102720
04:00−18nw019660 0.0 102820
07:00−16nw019780 0.0 103020
10:00−11e1186100 0.0 103155
13:00−8nne118274 0.0 1030177
16:00−7nne118633 0.0 1028131
19:00−13nne008918 0.0 103021
22:00−14nne009058 0.0 103121